Location: Squamish
(49.7000°N, 123.1500°W)
Time: 08:15:10
(UTC-07:00)

Daily predictions for brighter satellites

Satellite Brightness Start Highest point End
(mag) Time Altitude Azimuth Time Altitude Azimuth Time Altitude Azimuth
NOAA 12 4.1 19:20:29 10° SSE 19:25:41 64° ENE 19:30:56 10° N
Cosmos-2242 3.9 19:22:54 10° SSE 19:26:39 28° E 19:30:25 10° NNE
Meteor 1-22 Rocket 4.0 19:24:26 10° S 19:29:42 74° E 19:35:00 10° NNE
Meteor 1-24 Rocket 4.1 19:24:42 10° NNW 19:30:21 70° W 19:35:45 10° S
TELKOM 3 4.1 19:27:07 10° W 19:30:25 48° SSW 19:32:45 10° SE
Cosmos 1603 4.4 19:28:05 10° SSE 19:33:06 32° ESE 19:38:09 10° NE
Cosmos 1452 Rocket 3.6 19:28:19 10° NNW 19:33:38 90° E 19:38:53 10° SSE
ATLAS CENTAUR R/B 4.1 19:28:24 10° SSW 19:33:53 52° ESE 19:50:43 10° NE
Cosmos 1470 4.4 19:31:47 10° ESE 19:34:01 15° E 19:36:16 10° NE
Cosmos 1674 3.8 19:33:04 10° NNE 19:36:24 26° ENE 19:39:43 10° SE
NOSS 3-2 (A) 3.5 19:32:33 10° SSW 19:38:38 68° SE 19:45:22 10° NE
DMSP B5D1-3 4.5 19:35:51 10° NNE 19:40:59 77° ESE 19:46:06 10° S
ASTEX 1 4.4 19:37:32 10° NNE 19:41:34 25° E 19:45:32 10° SE
In-Cosmos 22 4.3 19:36:03 10° N 19:41:53 81° E 19:47:38 10° SSE
Spot 1 4.1 19:39:12 10° SSE 19:43:47 68° ENE 19:48:08 10° N
SKYMED 2 3.8 19:40:04 10° N 19:44:26 76° WNW 19:48:46 10° SSW
Cosmos 1408 Rocket 3.5 19:40:58 10° N 19:45:22 89° ENE 19:49:42 10° S
Cosmos 1500 Rocket 4.2 19:41:59 10° N 19:46:04 35° ENE 19:50:09 10° SE
SJ-6B 3.0 19:42:19 10° S 19:46:21 80° WSW 19:50:29 10° NNW
USA 238 DEB 4.2 19:39:41 10° WSW 19:46:41 65° NW 19:53:43 10° NE
USA 238 4.2 19:39:46 10° WSW 19:46:47 65° NW 19:53:49 10° NE
Cosmos 2333 Rocket 3.6 19:44:34 10° WSW 19:50:00 40° NW 19:55:26 10° NNE
Cosmos 2034 Rocket 4.1 19:44:34 10° S 19:50:43 61° E 19:56:59 10° NNE
Cosmos 1464 Rocket 3.9 19:44:53 10° S 19:51:06 79° E 19:57:17 10° NNE
BREEZE-M DEB (TANK) 4.4 19:34:28 10° W 19:52:56 70° S 19:57:17 15° ESE
Cosmos 1420 Rocket 4.0 19:48:21 10° NNW 19:53:40 79° ENE 19:59:00 10° SSE
ERBS 3.3 19:50:59 10° NW 19:54:15 36° NNE 19:56:38 16° E
ISS -1.5 19:57:52 10° S 19:59:49 15° SE 20:00:05 15° SE
CZ-4C R/B 3.2 19:54:53 10° WSW 20:00:18 49° NW 20:06:30 10° NE
Cosmos 1758 3.3 19:56:57 10° S 20:01:01 68° E 20:05:07 10° NNE
USA 186 3.0 20:01:55 16° NE 20:01:55 16° NE 20:03:04 10° NNE
Cosmos 192 4.4 19:57:20 10° SSW 20:02:18 83° WNW 20:07:19 10° NNE
ATLAS 5 CENTAUR R/B 1.8 19:57:44 10° SSW 20:02:33 69° SE 20:07:50 10° NE
Cosmos 724 4.4 19:58:52 10° SSW 20:04:41 57° ESE 20:10:41 10° NE
ALOS 2.4 20:01:02 10° SSE 20:05:34 55° ENE 20:10:09 10° N
Helios 1A 2.9 20:01:47 10° SSE 20:06:00 84° ENE 20:10:15 10° NNW
FengYun 1-2 T 4.2 20:01:27 10° SSE 20:06:56 76° ENE 20:12:26 10° NNW
CENTAUR R/B 3.3 20:02:07 10° S 20:07:14 28° ESE 20:12:53 10° ENE
Cosmos 2237 Rocket 3.8 20:02:36 10° WSW 20:07:48 36° NW 20:13:01 10° NNE
Cosmos 1544 3.2 20:04:17 10° S 20:07:56 54° E 20:11:38 10° NNE
Spot 2 Rocket 3.6 20:08:19 10° S 20:13:22 77° WSW 20:18:26 10° NNW
Cosmos 1743 Rocket 3.5 20:10:58 10° N 20:15:28 89° E 20:19:53 10° S
Cosmos 482 Debris 3.8 20:13:37 10° WNW 20:15:46 48° N 20:17:02 27° ENE
Resurs 1-3 3.6 20:12:43 10° SSE 20:17:06 87° WSW 20:21:33 10° NNW
Cosmos 1048 Rocket 4.2 20:12:04 10° S 20:17:08 48° ESE 20:22:10 10° NNE
NOSS 3-2 (C) 3.6 20:12:10 10° SW 20:18:23 89° NW 20:25:16 10° NE
HJ-1C 4.1 20:15:18 10° S 20:18:36 56° W 20:21:57 10° NNW
Cosmos 1269 Rocket 4.0 20:15:14 10° S 20:20:25 59° ESE 20:25:37 10° NNE
Cosmos 1328 4.2 20:17:55 10° N 20:21:43 41° ENE 20:23:26 26° SE
Resurs 01 Rocket 2.2 20:18:44 10° S 20:23:08 61° WSW 20:27:34 10° NNW
Envisat 4.0 20:22:48 23° E 20:24:26 28° ENE 20:28:42 10° N
SL-14 R/B 4.1 20:23:43 10° N 20:27:20 31° ENE 20:27:52 30° E
SL-16 R/B 3.2 20:23:52 10° SW 20:29:23 48° NW 20:34:55 10° NNE
CZ-2D R/B 3.2 20:26:23 15° SSE 20:29:31 73° ENE 20:33:25 10° N
Meteor 1-28 Rocket 4.4 20:26:33 10° N 20:30:08 45° WNW 20:33:41 10° SW
Abrixas 3.9 20:28:35 10° SSW 20:30:38 24° S 20:30:38 24° S
Sich 1 4.4 20:29:22 10° NNE 20:32:34 22° ENE 20:32:34 22° ENE
Cosmos 1939 Rocket 4.0 20:32:59 26° ENE 20:32:59 26° ENE 20:36:14 10° N
Helios 1B rocket 2.5 20:30:07 10° NNE 20:34:15 82° WNW 20:38:22 10° SSW
Cosmos 158 Rocket 4.2 20:30:23 10° S 20:34:55 40° ESE 20:39:29 10° NE
FENGYUN 3A 3.7 20:34:58 10° SSE 20:40:22 80° WSW 20:45:49 10° NNW
CZ-4B DEB 3.2 20:38:16 16° S 20:40:42 63° WSW 20:43:57 10° NNW
H-2A R/B 2.7 20:38:39 17° SSE 20:41:34 85° WSW 20:45:27 10° NNW
GP-B 3.1 20:38:36 10° N 20:43:01 59° E 20:45:35 24° SSE
CZ-4B DEB 4.4 20:43:12 33° SSE 20:44:44 87° ENE 20:48:22 10° NNW
USA 215 3.4 20:40:32 16° ENE 20:45:41 52° SE 20:52:01 10° SSW
Meteor 1-29 3.4 20:43:29 10° N 20:47:00 64° WNW 20:50:27 10° SSW
Cosmos 1953 4.1 20:49:54 10° SW 20:53:32 33° WNW 20:57:11 10° N
ERS-1 Rocket 3.1 20:55:37 43° ESE 20:56:52 54° ENE 21:01:47 10° N
Cosmos 2279 Rocket 4.2 20:54:12 29° SE 20:56:56 46° E 21:02:50 10° NNE
SJ-11-01 4.3 20:56:38 46° SE 20:57:45 61° ENE 21:02:25 10° N
Cosmos 1805 Rocket 3.6 20:53:32 10° N 20:57:54 53° ENE 20:58:09 52° E
H-2A R/B 3.3 21:00:19 28° NE 21:00:19 28° NE 21:03:33 10° N
Cosmos 2058 2.7 20:55:53 10° N 21:00:00 70° ENE 21:00:23 64° ESE
Cosmos 1092 Rocket 4.4 20:53:57 10° NNW 21:00:06 64° W 21:06:10 10° S
Cosmos 1943 Rocket 2.1 20:55:12 10° NNW 21:00:52 71° ENE 21:02:42 43° SE
Cosmos 2151 3.0 20:59:24 10° NNW 21:03:38 75° W 21:05:22 34° S
Cosmos 1110 Rocket 4.0 20:59:04 10° NNW 21:04:25 84° WSW 21:06:41 35° SSE
Cosmos 2369 Rocket 2.8 20:59:29 10° NW 21:05:00 55° WSW 21:09:00 19° S
Gbstr 26 Del rocket 3.9 21:01:08 10° SSW 21:05:03 41° SSE 21:05:03 41° SSE
Cosmos 1655 Rocket 3.9 21:00:42 10° N 21:06:58 80° E 21:10:29 28° SSE
Cosmos 1733 3.5 21:03:11 10° SSW 21:07:02 66° WNW 21:10:54 10° N
ATLAS 3B R/B 4.4 21:01:42 10° WNW 21:08:03 29° NNW 21:14:08 10° NE
Cosmos 2221 3.3 21:10:55 38° NE 21:10:55 38° NE 21:13:48 10° NNE
Cosmos 1470 3.5 21:05:56 10° SSW 21:09:43 51° WNW 21:13:32 10° N
Cosmos 1633 Rocket 3.8 21:06:09 10° N 21:09:23 37° NE 21:09:23 37° NE
Cosmos 1943 3.0 21:04:48 10° SSW 21:10:25 77° ESE 21:16:04 10° NNE
Cosmos 2026 Rocket 3.9 21:06:02 10° N 21:12:10 87° W 21:16:07 24° S
Cosmos 2142 Rocket 4.5 21:06:37 10° S 21:13:01 89° E 21:19:28 10° N
Cosmos 1703 4.5 21:09:24 10° N 21:11:44 30° NNE 21:11:44 30° NNE
Aureole 3 4.2 21:07:11 10° N 21:13:33 58° ENE 21:14:18 53° ESE
Cosmos 1428 Rocket 4.4 21:08:29 10° N 21:14:46 69° ENE 21:16:51 43° SE
Cosmos 1634 Rocket 4.1 21:14:32 10° SSW 21:20:46 77° W 21:27:01 10° N
ASTEX 1 4.4 21:16:07 10° N 21:20:49 47° WNW 21:25:30 10° SSW
YAOGAN 11 3.9 21:22:29 87° NNW 21:22:29 87° NNW 21:26:45 10° NNW
Cosmos 2251 Rocket 3.9 21:25:11 45° NE 21:25:11 45° NE 21:28:58 10° NNE
ERBS 3.9 21:27:45 10° WNW 21:30:03 35° W 21:30:03 35° W
UNK 4.3 21:12:53 10° WNW 21:33:21 77° SSW 21:34:57 54° SE
ISS -0.3 21:32:35 10° WSW 21:32:47 11° WSW 21:32:47 11° WSW
Cosmos 1666 Rocket 3.9 21:32:33 10° N 21:36:17 62° NNW 21:36:17 62° NNW
Meteor 2-20 4.4 21:33:04 10° N 21:39:16 85° W 21:40:47 54° S
Meteor 2-20 Rocket 4.3 21:33:25 10° N 21:39:39 80° E 21:40:24 69° SE
SPOT 5 3.7 21:41:47 37° N 21:41:47 37° N 21:44:35 10° N
Meteor 2-1 Rocket 4.2 21:41:08 46° SSW 21:43:01 87° W 21:48:58 10° NNE
ATLAS 5 CENTAUR R/B 3.6 21:43:08 10° W 21:47:42 33° NNW 21:52:34 10° NE
Cosmos 1626 4.4 21:43:57 10° N 21:45:11 20° N 21:45:11 20° N
Cosmos 1302 Rocket 4.1 21:44:13 10° NNW 21:49:24 68° WSW 21:49:25 68° WSW
CZ-4C R/B 4.3 21:45:27 10° WNW 21:50:23 25° N 21:55:50 10° NE
CENTAUR R/B 2.7 21:50:57 10° SW 21:57:14 74° NW 22:04:25 10° NE
MetOp-A 4.3 21:58:02 68° N 21:58:02 68° N 22:02:45 10° NNW
Envisat 3.6 22:03:01 49° WSW 22:03:12 49° W 22:08:10 10° NNW
Cosmos 1656 Rocket 3.8 21:59:25 10° NNW 22:04:08 66° NW 22:04:08 66° NW
ARGOS 3.8 22:10:13 48° N 22:10:13 48° N 22:14:12 10° N
BREEZE-M DEB (TANK) 4.2 22:08:31 10° W 22:14:54 56° W 22:14:54 56° W
H-2A R/B 3.6 22:22:19 28° N 22:22:19 28° N 22:24:54 10° N
SeaSat 1 4.3 22:20:51 10° NNE 22:22:49 23° NNE 22:22:49 23° NNE
USA 215 3.4 22:27:56 61° NNE 22:28:52 69° NNW 22:35:21 10° WSW
Lacrosse 4 Rocket 4.2 22:28:20 10° N 22:29:26 13° N 22:29:26 13° N
Terra 4.0 22:37:06 20° N 22:37:06 20° N 22:38:41 10° N
H-2A R/B 4.2 22:37:28 26° NW 22:37:28 26° NW 22:39:48 10° NNW
Cosmos 1980 Rocket 4.1 22:31:46 10° N 22:34:56 20° NNE 22:34:56 20° NNE
Cosmos 1943 Rocket 4.1 22:39:53 10° NW 22:44:02 22° W 22:44:14 22° WSW
ATLAS 3B R/B 4.2 22:54:51 10° NW 23:01:01 28° NNE 23:02:24 27° NNE
SL-16 R/B 4.4 23:04:36 10° N 23:07:15 17° NNE 23:07:15 17° NNE
Cosmos 2322 Rocket 4.4 23:27:01 10° NNW 23:29:26 19° N 23:29:26 19° N
ATLAS 5 CENTAUR R/B 4.3 23:30:07 10° NW 23:34:03 20° N 23:34:07 20° N
CZ-4C R/B 4.2 23:35:28 10° NW 23:40:59 29° NNE 23:40:59 29° NNE
CENTAUR R/B 4.2 23:43:11 10° W 23:49:06 32° NNW 23:55:43 10° NE
